Terminal Aerodrome Forecast
Issued by NWS

Current Version | Previous Version | Text Only | Print | Product List | Glossary On
Versions: 1 2 3 4 5 6 7 8 9 10 11 12 13 14 15
789
FTUS41 KBGM 231735
TAFITH
TAF
KITH 231735Z 2318/2418 14007KT P6SM -SHRA BKN050
      TEMPO 2400/2404 3SM TSRA BR OVC022CB
     FM240400 14008KT 5SM -SHRA BR OVC020
     FM240700 17008KT 4SM -SHRA BR OVC022
     FM241500 22006KT P6SM BKN029=

USA.gov is the U.S. government's official web portal to all federal, state and local government web resources and services.